Tiempo atmosférico en la estación meteorológica de Candelaria, Santa Cruz de Tenerife (463 m.)

Fecha
DESCASC
Temp. máxima en grados centígrados (hora)
DESCASC
Temp. mínima en grados centígrados (hora)
DESCASC
Temp. media en grados centígrados
DESCASC
Racha de viento máxima en m/sg (hora)
DESCASC
Velocidad máxima media en intervalos de 10 minutos(hora)
DESCASC
Precipitaciones diarias en mm
DESCASC
Precipitaciones de 00:00 a 06:00 en mm
DESCASC
Precipitaciones de 06:00 a 12:00 en mm
DESCASC
Precipitaciones de 12:00 a 18:00 en mm
DESCASC
Precipitaciones de 18:00 a 24:00 en mm
DESCASC
10-12-2017 19.3 (12:10) 10.9 (06:10) 15.1 7.22 (23:20) 4.72 (23:10) 0 0 0 0 0
09-12-2017 17.9 (12:50) 10.9 (22:40) 14.4 6.67 (13:00) 4.17 (12:50) 0 0 0 0 0
08-12-2017 18.2 (11:40) 10.2 (00:40) 14.2 8.33 (15:00) 5.28 (15:00) 0 0 0 0 0
07-12-2017 18 (12:20) 11.1 (00:00) 14.6 9.17 (15:10) 7.5 (15:10) 0 0 0 0 0
06-12-2017 18.2 (12:40) 12.6 (00:00) 15.4 7.5 (11:00) 5.28 (10:20) 0 0 0 0 0
05-12-2017 21 (12:30) 13.1 (00:00) 17.1 9.44 (14:50) 7.5 (14:50) 0 0 0 0 0
04-12-2017 18.8 (12:10) 13.2 (00:00) 16 7.78 (13:00) 4.72 (14:00) 0.2 0 0.2 0 0
03-12-2017 15.5 (15:00) 14.6 (00:00) 15.1 5.56 (15:30) 3.61 (00:10) 0.2 0.2 0 0 0
02-12-2017 20 (10:10) 14.9 (00:00) 17.4 8.06 (12:20) 5.83 (12:20) 9 0 0.8 7.6 0.6
01-12-2017 21 (10:50) 14.6 (00:00) 17.8 5 (14:00) 3.06 (13:50) 0.2 0 0 0 0.2
30-11-2017 20.2 (09:30) 14.8 (00:00) 17.5 3.89 (12:10) 3.06 (06:50) 0 0 0 0 0
29-11-2017 20.9 (12:30) 15.6 (00:00) 18.3 5 (13:10) 3.33 (13:10) 0 0 0 0 0
28-11-2017 23.2 (11:40) 15.7 (00:00) 19.5 4.72 (13:10) 2.78 (12:20) 0 0 0 0 0
27-11-2017 24.4 (09:30) 19 (00:00) 21.7 7.22 (02:30) 4.72 (04:10) 0 0 0 0 0
26-11-2017 24.1 (13:00) 18.6 (00:00) 21.4 10 (00:20) 5 (02:00) 0.2 0.2 0 0 0
25-11-2017 22.4 (09:50) 18.4 (00:00) 20.4 7.5 (05:50) 5 (07:10) 0.2 0.2 0 0 0
24-11-2017 23.1 (14:50) 15.1 (00:00) 19.1 7.22 (12:10) 4.17 (12:10) 0 0 0 0 0
23-11-2017 23.2 (10:20) 14.2 (00:00) 18.7 5.28 (13:00) 3.61 (01:50) 0 0 0 0 0
22-11-2017 22.9 (10:50) 15 (00:00) 18.9 6.39 (01:00) 3.61 (03:40) 0 0 0 0 0
21-11-2017 23.1 (13:50) 18.6 (00:00) 20.9 9.17 (13:20) 6.39 (12:30) 0 0 0 0 0
20-11-2017 22.8 (14:50) 13.3 (00:00) 18 8.33 (18:50) 4.17 (18:50) 0 0 0 0 0
19-11-2017 19.9 (14:00) 14.7 (00:00) 17.3 8.06 (13:10) 5.83 (14:20) 0 0 0 0 0
18-11-2017 20.3 (13:00) 14 (00:00) 17.1 6.67 (19:30) 4.44 (19:10) 0 0 0 0 0
17-11-2017 20 (11:10) 13.5 (00:00) 16.8 5 (13:10) 3.06 (13:10) 0 0 0 0 0
16-11-2017 19.9 (12:30) 13.1 (00:00) 16.5 6.11 (15:50) 3.61 (15:50) 0 0 0 0 0
15-11-2017 20.4 (11:00) 13.5 (00:00) 16.9 -- (--) -- (--) 0 0 0 0 0

Gráficas

Temp. máximas Temp. mínimas Temp. medias Precipitaciones Rachas de viento máximas Velocidades máximas media en intervalos de 10 minutos

Datos horarios

Fecha y hora oficial Temperatura (ºC) Velocidad del viento (km/h) Dirección del viento Racha (km/h) Dirección de racha Precipitación (mm) Presión (hPa) Tendencia (hPa) Humedad (%)
2017-12-14 23:00:00 11.9 9 Noroeste 16 Noroeste 0 -- -- 71
2017-12-14 22:00:00 12.2 12 Noroeste 14 Noroeste 0 -- -- 70
2017-12-14 21:00:00 12.4 11 Norte 16 Noroeste 0 -- -- 69
2017-12-14 20:00:00 13.6 11 Oeste 16 Noroeste 0 -- -- 73
2017-12-14 19:00:00 14.7 10 Oeste 17 Oeste 0 -- -- 68
2017-12-14 18:00:00 15.5 12 Oeste 24 Oeste 0 -- -- 67
2017-12-14 17:00:00 17.9 15 Oeste 22 Oeste 0 -- -- 58
2017-12-14 16:00:00 18.3 17 Oeste 25 Oeste 0 -- -- 60
2017-12-14 15:00:00 18.3 10 Sudoeste 26 Este 0 -- -- 64
2017-12-14 14:00:00 17.1 14 Sudeste 28 Este 0 -- -- 69
2017-12-14 13:00:00 17.9 15 Este 26 Este 0 -- -- 65
2017-12-14 12:00:00 17.3 19 Este 27 Este 0 -- -- 69
2017-12-14 11:00:00 17.3 15 Este 22 Este 0 -- -- 66
2017-12-14 10:00:00 16.6 10 Sudeste 17 Este 0 -- -- 66
2017-12-14 09:00:00 14.5 10 Este 21 Noroeste 0 -- -- 70
2017-12-14 08:00:00 11.4 13 Noroeste 20 Norte 0 -- -- 67
2017-12-14 07:00:00 12.2 13 Norte 20 Norte 0 -- -- 64
2017-12-14 06:00:00 12.3 13 Norte 19 Noroeste 0 -- -- 67
2017-12-14 05:00:00 13.1 8 Norte 17 Este 0 -- -- 73
2017-12-14 04:00:00 13.3 11 Norte 21 Norte 0 -- -- 69
2017-12-14 03:00:00 13.1 8 Norte 19 Norte 0 -- -- 68
2017-12-14 02:00:00 12.7 8 Noroeste 14 Noroeste 0 -- -- 71
2017-12-14 01:00:00 13.2 4 Norte 18 Este 0 -- -- 67
2017-12-14 00:00:00 13.7 6 Nordeste 26 Este 0 -- -- 68
2017-12-13 23:00:00 13.9 7 Norte 26 Nordeste 0 -- -- 64
2017-12-13 22:00:00 14.2 12 Norte 29 Nordeste 0 -- -- 61
2017-12-13 21:00:00 13.9 7 Nordeste 21 Nordeste 0 -- -- 63
2017-12-13 20:00:00 14.3 13 Nordeste 33 Este 0 -- -- 59
2017-12-13 19:00:00 14.4 7 Norte 34 Este 0 -- -- 60
2017-12-13 18:00:00 15.2 13 Nordeste 36 Nordeste 0 -- -- 62
2017-12-13 17:00:00 15.4 24 Norte 53 Norte 0 -- -- 62
2017-12-13 16:00:00 16 16 Nordeste 46 Este 0 -- -- 56
2017-12-13 15:00:00 15.9 29 Este 50 Nordeste 0 -- -- 56
2017-12-13 14:00:00 16.2 13 Este 48 Este 0 -- -- 58
2017-12-13 13:00:00 16.6 21 Nordeste 50 Este 0 -- -- 53
2017-12-13 12:00:00 16.5 24 Este 56 Este 0 -- -- 55
2017-12-13 11:00:00 17.1 23 Este 38 Este 0 -- -- 59
2017-12-13 10:00:00 15.5 21 Norte 45 Norte 0 -- -- 53
2017-12-13 09:00:00 14.8 17 Norte 47 Norte 0 -- -- 61
2017-12-13 08:00:00 14.7 15 Nordeste 48 Norte 0 -- -- 64
2017-12-13 07:00:00 14.1 19 Norte 42 Norte 0 -- -- 62
2017-12-13 06:00:00 13.9 14 Nordeste 60 Norte 0 -- -- 58
2017-12-13 05:00:00 13.7 22 Norte 58 Norte 0 -- -- 69
2017-12-13 04:00:00 13.6 13 Este 36 Norte 0 -- -- 66
2017-12-13 03:00:00 13.4 22 Nordeste 58 Norte 0.2 -- -- 70
2017-12-13 02:00:00 13.3 20 Norte 54 Norte 0 -- -- 73
2017-12-13 01:00:00 12.8 23 Nordeste 46 Nordeste 0.4 -- -- 76
2017-12-13 00:00:00 13.1 15 Nordeste 60 Norte 0.2 -- -- 76
2017-12-12 23:00:00 13.4 19 Norte 45 Noroeste 0.2 -- -- 71
2017-12-12 22:00:00 14.1 18 Norte 41 Este 0 -- -- 63
2017-12-12 21:00:00 13.8 22 Nordeste 50 Este 0.2 -- -- 73
2017-12-12 20:00:00 14.8 11 Nordeste 48 Este 0 -- -- 58
2017-12-12 19:00:00 14 27 Este 54 Este 0 -- -- 68
2017-12-12 18:00:00 14.7 10 Sur 44 Este 0 -- -- 69
2017-12-12 17:00:00 15.5 15 Nordeste 58 Este 0 -- -- 69
2017-12-12 16:00:00 15.4 19 Este 45 Este 0 -- -- 65
2017-12-12 15:00:00 15.8 16 Este 51 Nordeste 0 -- -- 72
2017-12-12 14:00:00 15.8 9 Sudoeste 38 Nordeste 0.2 -- -- 66
2017-12-12 13:00:00 15.1 21 Norte 46 Norte 0.2 -- -- 70
2017-12-12 12:00:00 17.4 14 Sur 45 Nordeste 0 -- -- 54
2017-12-12 11:00:00 17.2 7 Sudeste 51 Este 0 -- -- 52
2017-12-12 10:00:00 16.6 21 Este 60 Nordeste 0 -- -- 54
2017-12-12 09:00:00 15.3 15 Este 44 Este 0 -- -- 54
2017-12-12 08:00:00 14 26 Nordeste 49 Este 0 -- -- 60
2017-12-12 07:00:00 13.6 17 Nordeste 51 Nordeste 0 -- -- 68
2017-12-12 06:00:00 13.6 14 Nordeste 40 Norte 0 -- -- 65
2017-12-12 05:00:00 13.4 9 Este 38 Nordeste 0 -- -- 71
2017-12-12 04:00:00 13.7 19 Nordeste 46 Norte 0 -- -- 73
2017-12-12 03:00:00 13.2 16 Este 44 Este 0 -- -- 73
2017-12-12 02:00:00 13.1 18 Este 42 Este 0.2 -- -- 80
2017-12-12 01:00:00 12.8 12 Este 34 Norte 0.8 -- -- 88
2017-12-12 00:00:00 12.9 14 Este 56 Nordeste 1.6 -- -- 91
2017-12-11 23:00:00 13.6 19 Este 42 Este 2.8 -- -- 94
2017-12-11 22:00:00 14.2 8 Sudoeste 23 Oeste 1.8 -- -- 93
2017-12-11 21:00:00 14.6 5 Sur 18 Oeste 3.2 -- -- 92
2017-12-11 20:00:00 14.8 16 Oeste 22 Oeste 2.6 -- -- 91
2017-12-11 19:00:00 16.9 3 Oeste 21 Noroeste 0 -- -- 78
2017-12-11 18:00:00 17.7 8 Sudoeste 38 Noroeste 0 -- -- 71
2017-12-11 17:00:00 18.1 4 Sudeste 13 Sur 0 -- -- 71
2017-12-11 16:00:00 18.6 7 Sur 18 Sur 0 -- -- 69
2017-12-11 15:00:00 18.4 9 Sudeste 23 Sur 0 -- -- 67
2017-12-11 14:00:00 19.8 14 Sur 24 Sur 0 -- -- 61
2017-12-11 13:00:00 19.9 12 Sur 23 Sur 0 -- -- 60
2017-12-11 12:00:00 19.1 12 Sur 19 Sur 0 -- -- 65
2017-12-11 11:00:00 18 6 Sur 17 Sur 0 -- -- 69
2017-12-11 10:00:00 16.7 5 Sudeste 9 Sudeste 0 -- -- 73
2017-12-11 09:00:00 14.8 3 Nordeste 15 Nordeste 0 -- -- 81
2017-12-11 08:00:00 13.8 10 Nordeste 15 Norte 0 -- -- 81
2017-12-11 07:00:00 13.9 9 Norte 14 Nordeste 0 -- -- 79
2017-12-11 06:00:00 13.7 7 Norte 16 Nordeste 0 -- -- 80
2017-12-11 05:00:00 14.5 8 Norte 14 Nordeste 0 -- -- 81
2017-12-11 04:00:00 12.9 10 Noroeste 14 Noroeste 0 -- -- 83
2017-12-11 03:00:00 13 10 Noroeste 14 Noroeste 0 -- -- 83
2017-12-11 02:00:00 13.8 10 Oeste 20 Oeste 0 -- -- 79
2017-12-11 01:00:00 13.9 11 Noroeste 16 Noroeste 0 -- -- 81
2017-12-11 00:00:00 14.3 13 Noroeste 26 Oeste 0 -- -- 78
2017-12-10 23:00:00 14.6 12 Oeste 19 Oeste 0 -- -- 77
2017-12-10 22:00:00 14.5 12 Oeste 16 Oeste 0 -- -- 75
2017-12-10 21:00:00 14.6 9 Oeste 13 Noroeste 0 -- -- 71
2017-12-10 20:00:00 14.7 12 Noroeste 14 Noroeste 0 -- -- 80
2017-12-10 19:00:00 16 0 Calma 16 Este 0 -- -- 83
2017-12-10 18:00:00 16.3 8 Este 14 Este 0 -- -- 81
2017-12-10 17:00:00 16.6 10 Este 18 Este 0 -- -- 80
2017-12-10 16:00:00 17.1 12 Este 22 Sudeste 0 -- -- 77
2017-12-10 15:00:00 18.5 12 Este 24 Este 0 -- -- 71
2017-12-10 14:00:00 18.2 13 Este 24 Este 0 -- -- 69
2017-12-10 13:00:00 19.2 11 Este 18 Este 0 -- -- 66
2017-12-10 12:00:00 19 11 Este 17 Este 0 -- -- 66
2017-12-10 11:00:00 18.4 10 Este 19 Este 0 -- -- 65
2017-12-10 10:00:00 18 8 Este 14 Este 0 -- -- 65
2017-12-10 09:00:00 17.4 5 Sudeste 10 Noroeste 0 -- -- 33
2017-12-10 08:00:00 12 8 Norte 15 Noroeste 0 -- -- 22
2017-12-10 07:00:00 12 10 Noroeste 15 Noroeste 0 -- -- 23
2017-12-10 06:00:00 11.1 6 Noroeste 14 Norte 0 -- -- 63
2017-12-10 05:00:00 12.7 10 Oeste 18 Oeste 0 -- -- 75
2017-12-10 04:00:00 12.8 9 Norte 16 Norte 0 -- -- 72
2017-12-10 03:00:00 12.5 6 Norte 16 Norte 0 -- -- 70
2017-12-10 02:00:00 12.9 9 Norte 18 Norte 0 -- -- 70
2017-12-10 01:00:00 12.7 8 Norte 16 Norte 0 -- -- 65
2017-12-10 00:00:00 12.2 7 Norte 13 Noroeste 0 -- -- 66
2017-12-09 23:00:00 11.2 7 Noroeste 10 Noroeste 0 -- -- 58
2017-12-09 22:00:00 11.6 8 Noroeste 12 Noroeste 0 -- -- 59
2017-12-09 21:00:00 12 8 Noroeste 12 Noroeste 0 -- -- 68
2017-12-09 20:00:00 12.5 9 Noroeste 12 Noroeste 0 -- -- 74
2017-12-09 19:00:00 13.5 5 Noroeste 9 Este 0 -- -- 73
2017-12-09 18:00:00 14.7 6 Este 15 Este 0 -- -- 71
2017-12-09 17:00:00 15.4 9 Este 18 Este 0 -- -- 64
2017-12-09 16:00:00 17.2 12 Este 21 Este 0 -- -- 61
2017-12-09 15:00:00 17.4 11 Este 22 Sudeste 0 -- -- 65
2017-12-09 14:00:00 16.6 13 Este 22 Este 0 -- -- 68
2017-12-09 13:00:00 17.6 14 Este 24 Este 0 -- -- 63
2017-12-09 12:00:00 16.4 11 Este 22 Este 0 -- -- 67
2017-12-09 11:00:00 16.8 12 Este 19 Sudeste 0 -- -- 68
2017-12-09 10:00:00 16.1 7 Este 17 Este 0 -- -- 69
2017-12-09 09:00:00 14.8 8 Este 13 Nordeste 0 -- -- 73
2017-12-09 08:00:00 11.8 8 Norte 18 Noroeste 0 -- -- 56
2017-12-09 07:00:00 11.5 12 Norte 19 Norte 0 -- -- 64
2017-12-09 06:00:00 12.2 13 Norte 19 Norte 0 -- -- 57
2017-12-09 05:00:00 12.1 12 Norte 18 Noroeste 0 -- -- 50
2017-12-09 04:00:00 12.1 13 Norte 18 Norte 0 -- -- 50
2017-12-09 03:00:00 12.4 13 Norte 18 Norte 0 -- -- 45
2017-12-09 02:00:00 12.4 12 Norte 19 Norte 0 -- -- 52
2017-12-09 01:00:00 12.4 9 Norte 17 Norte 0 -- -- 55
2017-12-09 00:00:00 12 10 Norte 17 Norte 0 -- -- 48
2017-12-08 23:00:00 12.5 13 Norte 19 Norte 0 -- -- 38
2017-12-08 22:00:00 13 11 Norte 18 Norte 0 -- -- 45
2017-12-08 21:00:00 13.1 10 Norte 18 Norte 0 -- -- 53
2017-12-08 20:00:00 12.3 9 Noroeste 17 Norte 0 -- -- 57
2017-12-08 19:00:00 13.3 11 Norte 17 Norte 0 -- -- 57
2017-12-08 18:00:00 14.1 10 Este 19 Este 0 -- -- 59
2017-12-08 17:00:00 15.4 12 Este 24 Este 0 -- -- 56
2017-12-08 16:00:00 16.3 18 Este 27 Este 0 -- -- 50
2017-12-08 15:00:00 17.1 19 Este 30 Este 0 -- -- 49
2017-12-08 14:00:00 16.9 15 Este 26 Este 0 -- -- 64
2017-12-08 13:00:00 17.3 15 Este 25 Sudeste 0 -- -- 61
2017-12-08 12:00:00 18.1 11 Este 22 Este 0 -- -- 57
2017-12-08 11:00:00 17.4 10 Sudeste 20 Este 0 -- -- 60
2017-12-08 10:00:00 16.5 9 Este 17 Este 0 -- -- 62
2017-12-08 09:00:00 15.1 9 Este 17 Norte 0 -- -- 69
2017-12-08 08:00:00 12.1 13 Norte 17 Noroeste 0 -- -- 48
2017-12-08 07:00:00 11.8 11 Norte 15 Noroeste 0 -- -- 38
2017-12-08 06:00:00 11.7 11 Norte 17 Norte 0 -- -- 34
2017-12-08 05:00:00 12.1 11 Norte 16 Norte 0 -- -- 43
2017-12-08 04:00:00 12.4 8 Nordeste 16 Nordeste 0 -- -- 52
2017-12-08 03:00:00 11.7 5 Norte 18 Norte 0 -- -- 44
2017-12-08 02:00:00 12.9 9 Norte 20 Norte 0 -- -- 44
2017-12-08 01:00:00 10.4 6 Noroeste 13 Noroeste 0 -- -- 38
2017-12-08 00:00:00 11.5 8 Noroeste 19 Norte 0 -- -- 40
2017-12-07 23:00:00 12.6 9 Norte 16 Norte 0 -- -- 43
2017-12-07 22:00:00 12 9 Norte 17 Norte 0 -- -- 39
2017-12-07 21:00:00 12.5 10 Norte 18 Norte 0 -- -- 43
2017-12-07 20:00:00 11.7 6 Norte 14 Norte 0 -- -- 32
2017-12-07 19:00:00 12.5 8 Norte 13 Norte 0 -- -- 53
2017-12-07 18:00:00 13.6 13 Este 21 Este 0 -- -- 57
2017-12-07 17:00:00 15.1 14 Este 28 Este 0 -- -- 52
2017-12-07 16:00:00 16 21 Este 33 Este 0 -- -- 51
2017-12-07 15:00:00 16.8 23 Este 32 Este 0 -- -- 50
2017-12-07 14:00:00 17.7 18 Este 28 Este 0 -- -- 53
2017-12-07 13:00:00 17.6 16 Este 29 Sudeste 0 -- -- 57
2017-12-07 12:00:00 17.6 15 Este 28 Este 0 -- -- 56
2017-12-07 11:00:00 17.4 17 Este 27 Este 0 -- -- 56
2017-12-07 10:00:00 15.4 5 Nordeste 15 Este 0 -- -- 68
2017-12-07 09:00:00 15.1 8 Nordeste 18 Norte 0 -- -- 64
2017-12-07 08:00:00 12.2 10 Norte 19 Norte 0 -- -- 65
2017-12-07 07:00:00 12 15 Norte 21 Norte 0 -- -- 56
2017-12-07 06:00:00 12 14 Norte 19 Norte 0 -- -- 54
2017-12-07 05:00:00 12 14 Norte 22 Norte 0 -- -- 47
2017-12-07 04:00:00 12.1 15 Norte 21 Noroeste 0 -- -- 53
2017-12-07 03:00:00 12.2 13 Norte 18 Norte 0 -- -- 56
2017-12-07 02:00:00 12.3 13 Norte 20 Noroeste 0 -- -- 55
2017-12-07 01:00:00 12.8 13 Noroeste 21 Norte 0 -- -- 60
2017-12-07 00:00:00 13.3 9 Norte 20 Norte 0 -- -- 62
2017-12-06 23:00:00 12.7 11 Norte 22 Norte 0 -- -- 43
2017-12-06 22:00:00 12.8 10 Norte 19 Norte 0 -- -- 61
2017-12-06 21:00:00 12.9 12 Norte 16 Noroeste 0 -- -- 60
2017-12-06 20:00:00 13.3 8 Norte 15 Norte 0 -- -- 61
2017-12-06 19:00:00 13.7 7 Norte 10 Noroeste 0 -- -- 57
2017-12-06 18:00:00 14.7 5 Nordeste 16 Este 0 -- -- 49
2017-12-06 17:00:00 16.3 6 Nordeste 17 Este 0 -- -- 45
2017-12-06 16:00:00 16.8 11 Este 25 Este 0 -- -- 48
2017-12-06 15:00:00 17.6 11 Este 24 Sudeste 0 -- -- 52
2017-12-06 14:00:00 17.9 7 Sudeste 23 Este 0 -- -- 46
2017-12-06 13:00:00 18 6 Este 21 Este 0 -- -- 47
2017-12-06 12:00:00 17.4 7 Sudeste 23 Sudeste 0 -- -- 50
2017-12-06 11:00:00 17.4 19 Sudeste 27 Sudeste 0 -- -- 50
2017-12-06 10:00:00 16.8 19 Sudeste 27 Sudeste 0 -- -- 52
2017-12-06 09:00:00 16.6 8 Este 14 Este 0 -- -- 54
2017-12-06 08:00:00 13.6 11 Norte 17 Norte 0 -- -- 53
2017-12-06 07:00:00 13 11 Norte 15 Norte 0 -- -- 58
2017-12-06 06:00:00 13.6 6 Noroeste 17 Norte 0 -- -- 59
2017-12-06 05:00:00 12.8 14 Noroeste 19 Norte 0 -- -- 63
2017-12-06 04:00:00 13.3 5 Norte 16 Norte 0 -- -- 59
2017-12-06 03:00:00 13.4 12 Norte 21 Noroeste 0 -- -- 34
2017-12-06 02:00:00 13.1 17 Noroeste 21 Noroeste 0 -- -- 33
2017-12-06 01:00:00 14.3 9 Noroeste 23 Noroeste 0 -- -- 28
2017-12-06 00:00:00 14.1 16 Noroeste 22 Noroeste 0 -- -- 26
2017-12-05 23:00:00 14.5 15 Norte 21 Norte 0 -- -- 21
2017-12-05 22:00:00 13.1 8 Norte 19 Norte 0 -- -- 27
2017-12-05 21:00:00 15.4 9 Norte 21 Norte 0 -- -- 27
2017-12-05 20:00:00 15.3 13 Nordeste 19 Nordeste 0 -- -- 24
2017-12-05 19:00:00 13.6 8 Noroeste 15 Este 0 -- -- 65
2017-12-05 18:00:00 15.4 12 Este 21 Este 0 -- -- 65
2017-12-05 17:00:00 16.7 16 Este 28 Este 0 -- -- 68
2017-12-05 16:00:00 17.9 21 Este 31 Este 0 -- -- 64
2017-12-05 15:00:00 19 24 Este 34 Este 0 -- -- 62
2017-12-05 14:00:00 20.4 18 Este 27 Este 0 -- -- 56
2017-12-05 13:00:00 21 17 Este 24 Este 0 -- -- 54
2017-12-05 12:00:00 20.9 17 Este 25 Este 0 -- -- 54
2017-12-05 11:00:00 20.3 15 Este 24 Este 0 -- -- 57
2017-12-05 10:00:00 19.4 14 Este 22 Nordeste 0 -- -- 61
2017-12-05 09:00:00 18 15 Este 23 Este 0 -- -- 56
2017-12-05 08:00:00 14.1 12 Noroeste 18 Noroeste 0 -- -- 42
2017-12-05 07:00:00 14.5 12 Norte 18 Noroeste 0 -- -- 44
2017-12-05 06:00:00 13.1 10 Noroeste 17 Noroeste 0 -- -- 55
2017-12-05 05:00:00 14.1 9 Noroeste 18 Noroeste 0 -- -- 53
2017-12-05 04:00:00 15.2 10 Norte 20 Noroeste 0 -- -- 56
2017-12-05 03:00:00 15 10 Norte 19 Noroeste 0 -- -- 45
2017-12-05 02:00:00 13.9 9 Noroeste 17 Noroeste 0 -- -- 52
2017-12-05 01:00:00 13.9 13 Noroeste 18 Noroeste 0 -- -- 53
2017-12-05 00:00:00 14.4 3 Norte 16 Norte 0 -- -- 61
2017-12-04 23:00:00 13.7 9 Noroeste 15 Noroeste 0 -- -- 81
2017-12-04 22:00:00 13.8 7 Norte 12 Noroeste 0 -- -- 83
2017-12-04 21:00:00 13.7 10 Noroeste 16 Noroeste 0 -- -- 82
2017-12-04 20:00:00 14.6 10 Noroeste 13 Noroeste 0 -- -- 85
2017-12-04 19:00:00 15.6 7 Nordeste 12 Este 0 -- -- 87
2017-12-04 18:00:00 15.9 7 Este 15 Este 0 -- -- 85
2017-12-04 17:00:00 16.5 11 Este 19 Este 0 -- -- 81
2017-12-04 16:00:00 17.6 13 Este 20 Este 0 -- -- 74
2017-12-04 15:00:00 18.1 15 Este 25 Este 0 -- -- 70
2017-12-04 14:00:00 18.2 17 Este 26 Este 0 -- -- 66
2017-12-04 13:00:00 18.1 15 Este 28 Este 0 -- -- 69
2017-12-04 12:00:00 18.7 11 Este 21 Este 0 -- -- 65
2017-12-04 11:00:00 18.1 14 Este 22 Este 0.2 -- -- 64
2017-12-04 10:00:00 16.8 7 Nordeste 19 Este 0 -- -- 69
2017-12-04 09:00:00 15 5 Nordeste 18 Norte 0 -- -- 72
2017-12-04 08:00:00 13.6 9 Norte 17 Noroeste 0 -- -- 75
2017-12-04 07:00:00 14.2 10 Norte 21 Norte 0 -- -- 73
2017-12-04 06:00:00 14.2 12 Nordeste 22 Este 0 -- -- 77
2017-12-04 05:00:00 14.2 5 Nordeste 16 Este 0 -- -- 77
2017-12-04 04:00:00 14.5 4 Nordeste 15 Este 0 -- -- 79
2017-12-04 03:00:00 14.5 3 Este 8 Sur 0 -- -- 84
2017-12-04 02:00:00 14.7 4 Noroeste 8 Oeste 0 -- -- 82
2017-12-04 01:00:00 14.9 3 Oeste 19 Noroeste 0 -- -- 80
2017-12-04 00:00:00 14.7 6 Noroeste 13 Oeste 0 -- -- 84
2017-12-03 23:00:00 14.9 6 Oeste 13 Oeste 0 -- -- 84
2017-12-03 22:00:00 14.8 6 Oeste 15 Oeste 0 -- -- 87
2017-12-03 21:00:00 15 2 Sudoeste 7 Noroeste 0 -- -- 90
2017-12-03 20:00:00 15 5 Noroeste 12 Oeste 0 -- -- 91
2017-12-03 19:00:00 15 5 Oeste 12 Oeste 0 -- -- 91
2017-12-03 18:00:00 15.1 5 Este 14 Este 0 -- -- 89
2017-12-03 17:00:00 15.3 7 Este 18 Este 0 -- -- 88
2017-12-03 16:00:00 15.3 11 Este 20 Este 0 -- -- 86
2017-12-03 15:00:00 15.5 5 Nordeste 14 Este 0 -- -- 86
2017-12-03 14:00:00 15.1 8 Nordeste 16 Nordeste 0 -- -- 91
2017-12-03 13:00:00 14.7 8 Nordeste 17 Este 0 -- -- 93
2017-12-03 12:00:00 15.4 6 Este 17 Nordeste 0 -- -- 88
2017-12-03 11:00:00 15.1 8 Nordeste 18 Este 0 -- -- 88
2017-12-03 10:00:00 15.2 4 Sudeste 9 Sudeste 0 -- -- 90
2017-12-03 09:00:00 15.1 2 Este 5 Este 0 -- -- 93
2017-12-03 08:00:00 14.7 5 Nordeste 12 Nordeste 0 -- -- 94
2017-12-03 07:00:00 14.8 0 Calma 6 Este 0 -- -- 95
2017-12-03 06:00:00 14.7 4 Este 12 Este 0 -- -- 96
2017-12-03 05:00:00 14.7 5 Nordeste 13 Este 0 -- -- 96
2017-12-03 04:00:00 14.7 8 Este 14 Nordeste 0 -- -- 97
2017-12-03 03:00:00 14.6 9 Nordeste 14 Nordeste 0 -- -- 97
2017-12-03 02:00:00 14.7 9 Nordeste 18 Este 0 -- -- 98
2017-12-03 01:00:00 14.7 12 Nordeste 19 Nordeste 0.2 -- -- 98
2017-12-03 00:00:00 14.9 13 Este 19 Este 0.2 -- -- 98
2017-12-02 23:00:00 15.2 10 Nordeste 14 Nordeste 0 -- -- 98
2017-12-02 22:00:00 15.5 6 Este 15 Este 0.2 -- -- 98
2017-12-02 21:00:00 15.7 9 Este 13 Este 0.2 -- -- 98
2017-12-02 20:00:00 15.7 9 Este 16 Este 0 -- -- 98
2017-12-02 19:00:00 16 6 Este 12 Este 0 -- -- 98
2017-12-02 18:00:00 16.1 7 Este 10 Este 0.4 -- -- 98
2017-12-02 17:00:00 16 6 Este 9 Este 0.2 -- -- 98
2017-12-02 16:00:00 16.2 6 Este 16 Este 1 -- -- 98
2017-12-02 15:00:00 16.2 15 Este 23 Este 1 -- -- 98
2017-12-02 14:00:00 16.7 11 Este 21 Este 1.4 -- -- 97
2017-12-02 13:00:00 16.7 14 Este 29 Este 3.6 -- -- 96
2017-12-02 12:00:00 17.4 10 Este 21 Este 0.8 -- -- 94
2017-12-02 11:00:00 18.9 10 Este 16 Sudeste 0 -- -- 85
2017-12-02 10:00:00 19.8 8 Este 14 Sudeste 0 -- -- 73
2017-12-02 09:00:00 18.2 4 Sudeste 11 Norte 0 -- -- 80
2017-12-02 08:00:00 15.5 7 Norte 15 Norte 0 -- -- 81
2017-12-02 07:00:00 15.4 14 Noroeste 17 Noroeste 0 -- -- 80
2017-12-02 06:00:00 16 12 Noroeste 14 Noroeste 0 -- -- 82
2017-12-02 05:00:00 15.7 12 Noroeste 19 Noroeste 0 -- -- 86
2017-12-02 04:00:00 15 13 Noroeste 15 Noroeste 0 -- -- 88
2017-12-02 03:00:00 15.2 8 Noroeste 13 Noroeste 0 -- -- 86
2017-12-02 02:00:00 15.7 11 Noroeste 13 Noroeste 0 -- -- 87
2017-12-02 01:00:00 15.2 7 Noroeste 11 Noroeste 0 -- -- 89
2017-12-02 00:00:00 15 6 Noroeste 13 Noroeste 0 -- -- 89
2017-12-01 23:00:00 15 9 Noroeste 11 Noroeste 0 -- -- 90
2017-12-01 22:00:00 15.4 9 Noroeste 12 Noroeste 0 -- -- 89
2017-12-01 21:00:00 15.7 6 Noroeste 9 Noroeste 0 -- -- 91
2017-12-01 20:00:00 16.3 6 Noroeste 8 Noroeste 0.2 -- -- 94
2017-12-01 19:00:00 17.5 0 Calma 6 Sudeste 0 -- -- 95
2017-12-01 18:00:00 18 4 Este 10 Este 0 -- -- 95
2017-12-01 17:00:00 18.2 4 Sudeste 12 Este 0 -- -- 94
2017-12-01 16:00:00 18.1 8 Este 14 Este 0 -- -- 93
2017-12-01 15:00:00 18.5 8 Sudeste 15 Sudeste 0 -- -- 91
2017-12-01 14:00:00 19.7 10 Sudeste 18 Sudeste 0 -- -- 83
2017-12-01 13:00:00 20.1 7 Sur 13 Sudeste 0 -- -- 84
2017-12-01 12:00:00 19.2 8 Este 14 Sudeste 0 -- -- 85
2017-12-01 11:00:00 20.3 9 Sudeste 15 Sudeste 0 -- -- 79
2017-12-01 10:00:00 20.1 6 Sudeste 11 Este 0 -- -- 76
2017-12-01 09:00:00 19.1 4 Este 7 Este 0 -- -- 82
2017-12-01 08:00:00 16 4 Norte 11 Noroeste 0 -- -- 80
2017-12-01 07:00:00 14.8 4 Norte 9 Norte 0 -- -- 85
2017-12-01 06:00:00 14.7 5 Norte 8 Noroeste 0 -- -- 85
2017-12-01 05:00:00 15 6 Norte 9 Noroeste 0 -- -- 87
2017-12-01 04:00:00 15.5 4 Noroeste 7 Noroeste 0 -- -- 87
2017-12-01 03:00:00 16.1 6 Noroeste 12 Noroeste 0 -- -- 81
2017-12-01 02:00:00 16.4 3 Noroeste 8 Noroeste 0 -- -- 85
2017-12-01 01:00:00 15.7 5 Noroeste 10 Noroeste 0 -- -- 85
2017-12-01 00:00:00 15.9 6 Noroeste 8 Noroeste 0 -- -- 90
2017-11-30 23:00:00 17.3 2 Noroeste 6 Sudoeste 0 -- -- 93
2017-11-30 22:00:00 17.9 4 Sudoeste 6 Sudeste 0 -- -- 94
2017-11-30 21:00:00 18 4 Este 6 Este 0 -- -- 93
2017-11-30 20:00:00 18 3 Sur 7 Sur 0 -- -- 92
2017-11-30 19:00:00 18.2 0 Calma 5 Sudoeste 0 -- -- 91
2017-11-30 18:00:00 18.4 4 Sur 9 Sudeste 0 -- -- 92
2017-11-30 17:00:00 18.7 0 Calma 8 Este 0 -- -- 92
2017-11-30 16:00:00 18.7 6 Este 12 Sudeste 0 -- -- 90
2017-11-30 15:00:00 19.1 6 Sudeste 13 Sudeste 0 -- -- 86
2017-11-30 14:00:00 19.1 5 Este 10 Sudeste 0 -- -- 84
2017-11-30 13:00:00 19.3 5 Sudeste 14 Sudeste 0 -- -- 85
2017-11-30 12:00:00 19.6 5 Sudeste 8 Sudeste 0 -- -- 83
2017-11-30 11:00:00 19.4 5 Sur 7 Sudeste 0 -- -- 82
2017-11-30 10:00:00 19.2 0 Calma 10 Sur 0 -- -- 79
2017-11-30 09:00:00 19.2 5 Sudoeste 11 Noroeste 0 -- -- 80
2017-11-30 08:00:00 15.9 10 Noroeste 13 Noroeste 0 -- -- 86
2017-11-30 07:00:00 16.2 10 Noroeste 14 Noroeste 0 -- -- 85
2017-11-30 06:00:00 16.1 7 Noroeste 10 Noroeste 0 -- -- 87
2017-11-30 05:00:00 15.4 8 Oeste 13 Noroeste 0 -- -- 87
2017-11-30 04:00:00 15 4 Noroeste 9 Noroeste 0 -- -- 87
2017-11-30 03:00:00 15.3 6 Noroeste 10 Noroeste 0 -- -- 88
2017-11-30 02:00:00 15.9 3 Noroeste 10 Noroeste 0 -- -- 86
2017-11-30 01:00:00 16.3 9 Noroeste 14 Noroeste 0 -- -- 86
2017-11-30 00:00:00 17 4 Norte 11 Noroeste 0 -- -- 84
2017-11-29 23:00:00 17.2 5 Norte 13 Noroeste 0 -- -- 83
2017-11-29 22:00:00 17.7 0 Calma 9 Noroeste 0 -- -- 84
2017-11-29 21:00:00 18.1 4 Norte 9 Noroeste 0 -- -- 86
2017-11-29 20:00:00 18.6 0 Calma 4 Noroeste 0 -- -- 88
2017-11-29 19:00:00 18.6 3 Noroeste 6 Norte 0 -- -- 90
2017-11-29 18:00:00 19 4 Este 9 Este 0 -- -- 90
2017-11-29 17:00:00 19.4 5 Este 10 Sudeste 0 -- -- 88
2017-11-29 16:00:00 19.5 6 Este 12 Este 0 -- -- 88
2017-11-29 15:00:00 19.7 7 Este 16 Sudeste 0 -- -- 87
2017-11-29 14:00:00 20.2 8 Este 18 Sudeste 0 -- -- 83
2017-11-29 13:00:00 20.9 10 Sudeste 17 Este 0 -- -- 79
2017-11-29 12:00:00 20.1 11 Este 17 Sudeste 0 -- -- 84
2017-11-29 11:00:00 20.1 10 Este 18 Este 0 -- -- 83
2017-11-29 10:00:00 19.6 4 Este 12 Sudeste 0 -- -- 83
2017-11-29 09:00:00 19 4 Sudeste 8 Sudoeste 0 -- -- 82
2017-11-29 08:00:00 16.2 3 Noroeste 10 Noroeste 0 -- -- 85
2017-11-29 07:00:00 16.2 3 Norte 12 Norte 0 -- -- 81
2017-11-29 06:00:00 16.2 6 Noroeste 12 Oeste 0 -- -- 79
2017-11-29 05:00:00 16.7 7 Oeste 17 Oeste 0 -- -- 75
2017-11-29 04:00:00 16.3 5 Oeste 9 Noroeste 0 -- -- 68
2017-11-29 03:00:00 16.5 2 Norte 10 Noroeste 0 -- -- 70
2017-11-29 02:00:00 16.7 4 Noroeste 10 Noroeste 0 -- -- 69
2017-11-29 01:00:00 17.2 4 Oeste 7 Noroeste 0 -- -- 69
2017-11-29 00:00:00 17.1 4 Noroeste 13 Noroeste 0 -- -- 68
2017-11-28 23:00:00 17.2 9 Noroeste 13 Noroeste 0 -- -- 69
2017-11-28 22:00:00 18 4 Oeste 11 Noroeste 0 -- -- 66
2017-11-28 21:00:00 17.6 4 Noroeste 8 Noroeste 0 -- -- 70
2017-11-28 20:00:00 18.2 3 Nordeste 6 Nordeste 0 -- -- 89
2017-11-28 19:00:00 18.9 2 Oeste 7 Noroeste 0 -- -- 83
2017-11-28 18:00:00 19.6 0 Calma 6 Sudeste 0 -- -- 81
2017-11-28 17:00:00 20.4 4 Este 9 Sudeste 0 -- -- 76
2017-11-28 16:00:00 21.2 6 Sudeste 11 Sudeste 0 -- -- 69
2017-11-28 15:00:00 21.7 6 Este 15 Sudeste 0 -- -- 66
2017-11-28 14:00:00 21.8 8 Este 17 Sudeste 0 -- -- 68
2017-11-28 13:00:00 22.4 9 Sudeste 15 Sudeste 0 -- -- 62
2017-11-28 12:00:00 22.8 9 Sudeste 15 Sudeste 0 -- -- 58
2017-11-28 11:00:00 22.3 6 Sur 13 Sudeste 0 -- -- 55
2017-11-28 10:00:00 22.1 4 Sur 9 Sudeste 0 -- -- 47
2017-11-28 09:00:00 18 2 Noroeste 7 Noroeste 0 -- -- 41
2017-11-28 08:00:00 16.8 2 Noroeste 11 Noroeste 0 -- -- 47
2017-11-28 07:00:00 16.4 9 Noroeste 13 Noroeste 0 -- -- 51
2017-11-28 06:00:00 16.1 8 Noroeste 12 Noroeste 0 -- -- 51
2017-11-28 05:00:00 16 5 Norte 10 Noroeste 0 -- -- 69
2017-11-28 04:00:00 16.3 3 Nordeste 9 Noroeste 0 -- -- 69
2017-11-28 03:00:00 17.2 3 Sudeste 14 Noroeste 0 -- -- 71
2017-11-28 02:00:00 18.2 4 Norte 12 Noroeste 0 -- -- 38
2017-11-28 01:00:00 18.4 4 Oeste 14 Noroeste 0 -- -- 40
2017-11-28 00:00:00 19 8 Noroeste 13 Noroeste 0 -- -- 40
2017-11-27 23:00:00 21 7 Norte 15 Norte 0 -- -- 32
2017-11-27 22:00:00 20.3 5 Nordeste 10 Nordeste 0 -- -- 36
2017-11-27 21:00:00 19.7 4 Nordeste 13 Noroeste 0 -- -- 56
2017-11-27 20:00:00 19.8 8 Noroeste 15 Noroeste 0 -- -- 43
2017-11-27 19:00:00 20.1 3 Norte 12 Noroeste 0 -- -- 60
2017-11-27 18:00:00 20.8 6 Nordeste 10 Nordeste 0 -- -- 65
2017-11-27 17:00:00 21.6 6 Este 18 Este 0 -- -- 64
2017-11-27 16:00:00 21.7 8 Este 17 Sudeste 0 -- -- 61
2017-11-27 15:00:00 23.6 12 Nordeste 21 Sudeste 0 -- -- 52
2017-11-27 14:00:00 23.4 9 Sudeste 15 Sudeste 0 -- -- 49
2017-11-27 13:00:00 22.5 8 Sudeste 22 Sudeste 0 -- -- 47
2017-11-27 12:00:00 22.4 7 Este 16 Este 0 -- -- 44
2017-11-27 11:00:00 23 8 Nordeste 17 Este 0 -- -- 35
2017-11-27 10:00:00 23.8 5 Este 15 Sudeste 0 -- -- 35
2017-11-27 09:00:00 23.1 5 Este 10 Este 0 -- -- 40
2017-11-27 08:00:00 20.8 6 Nordeste 15 Norte 0 -- -- 36
2017-11-27 07:00:00 20 8 Noroeste 13 Noroeste 0 -- -- 39
2017-11-27 06:00:00 21.6 10 Oeste 20 Oeste 0 -- -- 33
2017-11-27 05:00:00 22.5 13 Oeste 24 Oeste 0 -- -- 33
2017-11-27 04:00:00 23 15 Oeste 23 Sudoeste 0 -- -- 33
2017-11-27 03:00:00 22.9 11 Sudoeste 26 Oeste 0 -- -- 38
2017-11-27 02:00:00 22.4 8 Noroeste 14 Nordeste 0 -- -- 46
2017-11-27 01:00:00 20.8 7 Norte 12 Nordeste 0 -- -- 50
2017-11-27 00:00:00 20.7 5 Nordeste 10 Nordeste 0 -- -- 51
2017-11-26 23:00:00 20.2 7 Norte 15 Norte 0 -- -- 54
2017-11-26 22:00:00 20.2 8 Norte 14 Norte 0 -- -- 59
2017-11-26 21:00:00 19.6 7 Norte 12 Norte 0 -- -- 70
2017-11-26 20:00:00 19 7 Oeste 12 Oeste 0 -- -- 90
2017-11-26 19:00:00 19.3 3 Sur 9 Sudeste 0 -- -- 89
2017-11-26 18:00:00 19.9 4 Este 9 Este 0 -- -- 85
2017-11-26 17:00:00 20.4 5 Este 12 Este 0 -- -- 82
2017-11-26 16:00:00 20.9 7 Sudeste 15 Sudeste 0 -- -- 77
2017-11-26 15:00:00 21.7 6 Este 16 Este 0 -- -- 70
2017-11-26 14:00:00 22.7 11 Sudeste 23 Sur 0 -- -- 66
2017-11-26 13:00:00 24.1 12 Sur 23 Sudeste 0 -- -- 62
2017-11-26 12:00:00 21.9 11 Sur 20 Sur 0 -- -- 70
2017-11-26 11:00:00 22.2 10 Sur 22 Sur 0 -- -- 61
2017-11-26 10:00:00 22.3 10 Sudeste 24 Este 0 -- -- 56
2017-11-26 09:00:00 20.8 10 Este 21 Este 0 -- -- 47
2017-11-26 08:00:00 19.8 8 Este 24 Nordeste 0 -- -- 47
2017-11-26 07:00:00 19.2 10 Nordeste 20 Este 0 -- -- 47
2017-11-26 06:00:00 19 5 Oeste 18 Sur 0 -- -- 51
2017-11-26 05:00:00 18.9 6 Nordeste 17 Norte 0 -- -- 52
2017-11-26 04:00:00 18.6 6 Nordeste 14 Nordeste 0 -- -- 52
2017-11-26 03:00:00 19.3 7 Nordeste 25 Sudoeste 0 -- -- 51
2017-11-26 02:00:00 19.5 18 Sur 28 Sudoeste 0 -- -- 54
2017-11-26 01:00:00 19.4 3 Sudoeste 36 Sudoeste 0.2 -- -- 62
2017-11-26 00:00:00 22.2 13 Sudoeste 27 Oeste 0 -- -- 49
2017-11-25 23:00:00 20.8 9 Oeste 20 Sudoeste 0 -- -- 53
2017-11-25 22:00:00 20.2 13 Oeste 26 Sudoeste 0 -- -- 56
2017-11-25 21:00:00 20.3 10 Oeste 18 Norte 0 -- -- 46
2017-11-25 20:00:00 20 6 Nordeste 13 Nordeste 0 -- -- 44
2017-11-25 19:00:00 20.2 9 Oeste 21 Oeste 0 -- -- 48
2017-11-25 18:00:00 19.2 3 Noroeste 13 Sudoeste 0 -- -- 76
2017-11-25 17:00:00 19.7 10 Sudoeste 20 Sudoeste 0 -- -- 77
2017-11-25 16:00:00 19.9 10 Sur 15 Sur 0 -- -- 74
2017-11-25 15:00:00 21 9 Sur 15 Sudeste 0 -- -- 67
2017-11-25 14:00:00 21 8 Sur 13 Sur 0 -- -- 68
2017-11-25 13:00:00 21.7 6 Sur 15 Sur 0 -- -- 64
2017-11-25 12:00:00 21 9 Sur 15 Sudeste 0 -- -- 63
2017-11-25 11:00:00 21.5 5 Sudeste 19 Sur 0 -- -- 49
2017-11-25 10:00:00 22.3 11 Sur 18 Sudoeste 0 -- -- 37
2017-11-25 09:00:00 21.1 10 Sudoeste 26 Sudoeste 0 -- -- 37
2017-11-25 08:00:00 21.5 10 Sudoeste 26 Oeste 0 -- -- 38
2017-11-25 07:00:00 20.9 18 Oeste 24 Oeste 0 -- -- 40
2017-11-25 06:00:00 20.6 13 Sudoeste 27 Sudoeste 0.2 -- -- 53
2017-11-25 05:00:00 19.5 12 Oeste 20 Noroeste 0 -- -- 68
2017-11-25 04:00:00 19.6 9 Este 21 Norte 0 -- -- 75
2017-11-25 03:00:00 20.9 8 Este 17 Norte 0 -- -- 65
2017-11-25 02:00:00 19.5 7 Norte 16 Oeste 0 -- -- 71
2017-11-25 01:00:00 18.7 5 Nordeste 13 Sur 0 -- -- 87
2017-11-25 00:00:00 21.1 7 Oeste 21 Oeste 0 -- -- 55
2017-11-24 23:00:00 19.2 7 Noroeste 15 Oeste 0 -- -- 64
2017-11-24 22:00:00 18.3 6 Norte 12 Norte 0 -- -- 69
2017-11-24 21:00:00 18.1 4 Nordeste 11 Este 0 -- -- 87
2017-11-24 20:00:00 18.4 8 Nordeste 10 Nordeste 0 -- -- 76
2017-11-24 19:00:00 19.6 4 Nordeste 12 Norte 0 -- -- 54
2017-11-24 18:00:00 19.6 9 Nordeste 14 Este 0 -- -- 53
2017-11-24 17:00:00 21.5 6 Este 17 Este 0 -- -- 42
2017-11-24 16:00:00 22.1 9 Este 21 Este 0 -- -- 44
2017-11-24 15:00:00 22.9 10 Sudeste 18 Este 0 -- -- 62
2017-11-24 14:00:00 21 8 Este 15 Sudeste 0 -- -- 69
2017-11-24 13:00:00 20.2 7 Sudeste 26 Sur 0 -- -- 73
2017-11-24 12:00:00 21.7 13 Sudeste 25 Sur 0 -- -- 76
2017-11-24 11:00:00 20.5 8 Este 15 Este 0 -- -- 73
2017-11-24 10:00:00 19.3 8 Nordeste 10 Este 0 -- -- 74
2017-11-24 09:00:00 17.8 5 Noroeste 10 Norte 0 -- -- 72
2017-11-24 08:00:00 15.8 8 Noroeste 12 Noroeste 0 -- -- 70
2017-11-24 07:00:00 15.3 4 Oeste 6 Noroeste 0 -- -- 70
2017-11-24 06:00:00 15.2 4 Noroeste 10 Noroeste 0 -- -- 65
2017-11-24 05:00:00 15.2 5 Noroeste 9 Noroeste 0 -- -- 64
2017-11-24 04:00:00 15.7 2 Noroeste 8 Noroeste 0 -- -- 73
2017-11-24 03:00:00 15.8 3 Noroeste 11 Noroeste 0 -- -- 76
2017-11-24 02:00:00 15.6 3 Norte 8 Noroeste 0 -- -- 77
2017-11-24 01:00:00 15.2 6 Norte 12 Norte 0 -- -- 67
2017-11-24 00:00:00 16.2 2 Nordeste 9 Noroeste 0 -- -- 72
2017-11-23 23:00:00 15.7 4 Norte 9 Norte 0 -- -- 77
2017-11-23 22:00:00 15.9 5 Norte 8 Noroeste 0 -- -- 68
2017-11-23 21:00:00 16.3 3 Oeste 6 Noroeste 0 -- -- 71
2017-11-23 20:00:00 16.7 4 Noroeste 8 Norte 0 -- -- 69
2017-11-23 19:00:00 17.5 2 Nordeste 6 Este 0 -- -- 74
2017-11-23 18:00:00 18 5 Este 10 Este 0 -- -- 71
2017-11-23 17:00:00 19.4 7 Sudeste 13 Sudeste 0 -- -- 67
2017-11-23 16:00:00 20.3 8 Sudeste 15 Sudeste 0 -- -- 63
2017-11-23 15:00:00 21.2 7 Sudeste 14 Sudeste 0 -- -- 63
2017-11-23 14:00:00 20.6 5 Sudeste 16 Sudeste 0 -- -- 63
2017-11-23 13:00:00 21.3 10 Sudeste 19 Sudeste 0 -- -- 60
2017-11-23 12:00:00 21.3 8 Sudeste 17 Este 0 -- -- 56
2017-11-23 11:00:00 22.6 7 Este 14 Este 0 -- -- 44
2017-11-23 10:00:00 22.8 7 Sur 13 Sur 0 -- -- 26
2017-11-23 09:00:00 21.3 8 Sudoeste 17 Sudoeste 0 -- -- 18
2017-11-23 08:00:00 17.5 11 Noroeste 18 Noroeste 0 -- -- 23
2017-11-23 07:00:00 16 9 Noroeste 17 Noroeste 0 -- -- 26
2017-11-23 06:00:00 15.6 0 Calma 12 Noroeste 0 -- -- 30
2017-11-23 05:00:00 14.2 2 Oeste 8 Oeste 0 -- -- 35
2017-11-23 04:00:00 15.3 0 Calma 13 Noroeste 0 -- -- 31
2017-11-23 03:00:00 16.2 9 Noroeste 14 Noroeste 0 -- -- 25
2017-11-23 02:00:00 17.3 10 Noroeste 18 Noroeste 0 -- -- 24
2017-11-23 01:00:00 17.2 7 Noroeste 18 Noroeste 0 -- -- 48
2017-11-23 00:00:00 16.6 3 Este 18 Noroeste 0 -- -- 68
2017-11-22 23:00:00 15.5 8 Noroeste 15 Noroeste 0 -- -- 45
2017-11-22 22:00:00 15.5 4 Noroeste 8 Noroeste 0 -- -- 74
2017-11-22 21:00:00 16.4 4 Noroeste 5 Noroeste 0 -- -- 83
2017-11-22 20:00:00 17.2 2 Norte 3 Noroeste 0 -- -- 82
2017-11-22 19:00:00 18.2 0 Calma 4 Este 0 -- -- 84
2017-11-22 18:00:00 18.7 3 Sudeste 7 Sudeste 0 -- -- 83
2017-11-22 17:00:00 19.7 4 Este 13 Sudeste 0 -- -- 77
2017-11-22 16:00:00 20.8 6 Sudeste 17 Este 0 -- -- 72
2017-11-22 15:00:00 21.5 10 Este 20 Este 0 -- -- 68
2017-11-22 14:00:00 22.3 11 Este 21 Este 0 -- -- 64
2017-11-22 13:00:00 22.1 11 Este 21 Sudeste 0 -- -- 64
2017-11-22 12:00:00 22.5 8 Sudeste 19 Este 0 -- -- 56
2017-11-22 11:00:00 22.8 13 Este 23 Sudeste 0 -- -- 50
2017-11-22 10:00:00 21.9 9 Este 15 Este 0 -- -- 43
2017-11-22 09:00:00 21.6 6 Este 13 Nordeste 0 -- -- 24
2017-11-22 08:00:00 19.2 8 Nordeste 17 Norte 0 -- -- 21
2017-11-22 07:00:00 18.5 11 Norte 17 Norte 0 -- -- 19
2017-11-22 06:00:00 18.8 8 Norte 15 Norte 0 -- -- 18
2017-11-22 05:00:00 19 8 Norte 14 Nordeste 0 -- -- 18
2017-11-22 04:00:00 18.9 6 Norte 18 Norte 0 -- -- 17
2017-11-22 03:00:00 18.8 9 Noroeste 18 Noroeste 0 -- -- 18
2017-11-22 02:00:00 18.9 9 Noroeste 17 Noroeste 0 -- -- 18
2017-11-22 01:00:00 19.5 12 Noroeste 23 Noroeste 0 -- -- 16
2017-11-22 00:00:00 20.6 12 Oeste 23 Sudoeste 0 -- -- 16
2017-11-21 23:00:00 20.9 13 Sudoeste 23 Sudoeste 0 -- -- 16
2017-11-21 22:00:00 20.3 8 Oeste 17 Noroeste 0 -- -- 16
2017-11-21 21:00:00 18.9 10 Noroeste 15 Noroeste 0 -- -- 19
2017-11-21 20:00:00 19.6 4 Norte 11 Norte 0 -- -- 21
2017-11-21 19:00:00 20 4 Nordeste 10 Norte 0 -- -- 21
2017-11-21 18:00:00 20.5 4 Norte 14 Sudoeste 0 -- -- 24
2017-11-21 17:00:00 21.4 8 Sudoeste 20 Sudoeste 0 -- -- 26
2017-11-21 16:00:00 22 10 Sudoeste 22 Sur 0 -- -- 24
2017-11-21 15:00:00 21.9 15 Sur 30 Sur 0 -- -- 30
2017-11-21 14:00:00 23 18 Sur 33 Sur 0 -- -- 34
2017-11-21 13:00:00 22.2 19 Sur 31 Sur 0 -- -- 24
2017-11-21 12:00:00 22.5 21 Sur 31 Sudoeste 0 -- -- 22
2017-11-21 11:00:00 22.5 19 Sur 31 Sur 0 -- -- 24
2017-11-21 10:00:00 22.2 13 Sur 23 Sur 0 -- -- 31
2017-11-21 09:00:00 21.5 9 Sudoeste 19 Sudoeste 0 -- -- 19
2017-11-21 08:00:00 20.4 12 Sudoeste 26 Sudoeste 0 -- -- 20
2017-11-21 07:00:00 19.4 9 Oeste 20 Sudoeste 0 -- -- 25
2017-11-21 06:00:00 20.1 13 Oeste 26 Sudoeste 0 -- -- 19
2017-11-21 05:00:00 19.8 14 Oeste 23 Oeste 0 -- -- 20
2017-11-21 04:00:00 19.4 10 Oeste 22 Oeste 0 -- -- 21
2017-11-21 03:00:00 19.4 12 Oeste 22 Oeste 0 -- -- 21
2017-11-21 02:00:00 20 11 Oeste 21 Oeste 0 -- -- 19
2017-11-21 01:00:00 19.4 13 Oeste 19 Oeste 0 -- -- 20
2017-11-21 00:00:00 20.4 11 Oeste 23 Sudoeste 0 -- -- 19
2017-11-20 23:00:00 20.1 12 Oeste 19 Sudoeste 0 -- -- 19
2017-11-20 22:00:00 20.3 10 Oeste 22 Sudoeste 0 -- -- 19
2017-11-20 21:00:00 20.2 9 Oeste 23 Sudoeste 0 -- -- 20
2017-11-20 20:00:00 20.3 7 Oeste 22 Sudoeste 0 -- -- 21
2017-11-20 19:00:00 21.3 13 Sudoeste 30 Sudoeste 0 -- -- 18
2017-11-20 18:00:00 20.8 6 Sudoeste 13 Oeste 0 -- -- 30
2017-11-20 17:00:00 21.7 5 Sudoeste 18 Sur 0 -- -- 44
2017-11-20 16:00:00 22.7 6 Sur 18 Sur 0 -- -- 52
2017-11-20 15:00:00 22.6 11 Sur 21 Sudeste 0 -- -- 47
2017-11-20 14:00:00 22.2 6 Sudeste 15 Sudeste 0 -- -- 58
2017-11-20 13:00:00 21.9 9 Sudeste 21 Sudeste 0 -- -- 66
2017-11-20 12:00:00 21.6 11 Este 20 Este 0 -- -- 65
2017-11-20 11:00:00 21.3 10 Este 22 Sudeste 0 -- -- 66
2017-11-20 10:00:00 20.5 6 Este 12 Sudeste 0 -- -- 64
2017-11-20 09:00:00 19 3 Este 12 Noroeste 0 -- -- 63
2017-11-20 08:00:00 14 6 Noroeste 14 Noroeste 0 -- -- 71
2017-11-20 07:00:00 14.1 7 Oeste 13 Noroeste 0 -- -- 82
2017-11-20 06:00:00 14 6 Noroeste 13 Noroeste 0 -- -- 83
2017-11-20 05:00:00 14.8 6 Norte 10 Noroeste 0 -- -- 82
2017-11-20 04:00:00 16 6 Este 10 Este 0 -- -- 87
2017-11-20 03:00:00 15.9 7 Norte 18 Noroeste 0 -- -- 76
2017-11-20 02:00:00 15.4 14 Noroeste 17 Noroeste 0 -- -- 73
2017-11-20 01:00:00 15.2 8 Norte 13 Norte 0 -- -- 74
2017-11-20 00:00:00 15.1 8 Norte 15 Nordeste 0 -- -- 78
2017-11-19 23:00:00 16.2 8 Este 13 Este 0 -- -- 82
2017-11-19 22:00:00 15.5 8 Norte 14 Norte 0 -- -- 73
2017-11-19 21:00:00 15.6 9 Norte 15 Norte 0 -- -- 78
2017-11-19 20:00:00 15.2 8 Noroeste 18 Este 0 -- -- 78
2017-11-19 19:00:00 16.6 17 Este 26 Este 0 -- -- 86
2017-11-19 18:00:00 16.8 17 Este 25 Este 0 -- -- 84
2017-11-19 17:00:00 17.5 18 Este 27 Este 0 -- -- 77
2017-11-19 16:00:00 18.1 17 Este 27 Este 0 -- -- 74
2017-11-19 15:00:00 19.2 20 Este 27 Este 0 -- -- 70
2017-11-19 14:00:00 19.9 17 Este 29 Este 0 -- -- 71
2017-11-19 13:00:00 19.5 17 Este 29 Este 0 -- -- 68
2017-11-19 12:00:00 18.1 14 Este 22 Sudeste 0 -- -- 74
2017-11-19 11:00:00 17.5 12 Este 18 Este 0 -- -- 79
2017-11-19 10:00:00 17.3 11 Este 16 Este 0 -- -- 81
2017-11-19 09:00:00 16.8 3 Este 9 Nordeste 0 -- -- 85
2017-11-19 08:00:00 16.1 6 Nordeste 10 Este 0 -- -- 87
2017-11-19 07:00:00 15.2 6 Noroeste 11 Norte 0 -- -- 77
2017-11-19 06:00:00 16 6 Nordeste 15 Este 0 -- -- 80
2017-11-19 05:00:00 16 3 Norte 20 Este 0 -- -- 83
2017-11-19 04:00:00 15.3 5 Norte 10 Norte 0 -- -- 73
2017-11-19 03:00:00 15.6 6 Norte 14 Noroeste 0 -- -- 73
2017-11-19 02:00:00 15.2 13 Noroeste 19 Norte 0 -- -- 74
2017-11-19 01:00:00 15.1 6 Norte 12 Nordeste 0 -- -- 79
2017-11-19 00:00:00 14.7 8 Norte 12 Noroeste 0 -- -- 78
2017-11-18 23:00:00 15.5 7 Norte 13 Este 0 -- -- 79
2017-11-18 22:00:00 16.5 3 Sudoeste 15 Este 0 -- -- 87
2017-11-18 21:00:00 16.7 4 Este 19 Este 0 -- -- 87
2017-11-18 20:00:00 16.8 7 Este 24 Este 0 -- -- 87
2017-11-18 19:00:00 17 11 Este 17 Este 0 -- -- 87
2017-11-18 18:00:00 17.1 3 Este 16 Este 0 -- -- 84
2017-11-18 17:00:00 17.6 10 Este 18 Este 0 -- -- 81
2017-11-18 16:00:00 18.4 10 Sudeste 18 Sudeste 0 -- -- 78
2017-11-18 15:00:00 19.7 10 Sudeste 22 Sudeste 0 -- -- 69
2017-11-18 14:00:00 19.8 10 Este 22 Este 0 -- -- 70
2017-11-18 13:00:00 20.3 9 Este 20 Este 0 -- -- 68
2017-11-18 12:00:00 18.9 7 Este 14 Este 0 -- -- 73
2017-11-18 11:00:00 18.3 6 Sudeste 15 Sudeste 0 -- -- 76
2017-11-18 10:00:00 18.7 7 Este 14 Este 0 -- -- 76
2017-11-18 09:00:00 16.2 6 Nordeste 11 Norte 0 -- -- 84
2017-11-18 08:00:00 14.4 4 Noroeste 8 Noroeste 0 -- -- 90
2017-11-18 07:00:00 14.1 4 Norte 12 Noroeste 0 -- -- 89
2017-11-18 06:00:00 14.4 6 Norte 10 Norte 0 -- -- 88
2017-11-18 05:00:00 14.2 5 Norte 9 Noroeste 0 -- -- 89
2017-11-18 04:00:00 14.5 4 Norte 8 Noroeste 0 -- -- 89
2017-11-18 03:00:00 14.8 6 Noroeste 10 Norte 0 -- -- 87
2017-11-18 02:00:00 15.3 4 Noroeste 6 Noroeste 0 -- -- 87
2017-11-18 01:00:00 15.8 0 Calma 8 Este 0 -- -- 87
2017-11-18 00:00:00 16.2 5 Este 10 Este 0 -- -- 88
2017-11-17 23:00:00 16.4 9 Este 12 Este 0 -- -- 88
2017-11-17 22:00:00 16.6 0 Calma 6 Este 0 -- -- 86
2017-11-17 21:00:00 16.6 8 Este 12 Este 0 -- -- 87
2017-11-17 20:00:00 16.6 6 Este 13 Este 0 -- -- 87
2017-11-17 19:00:00 16.7 7 Este 10 Este 0 -- -- 88
2017-11-17 18:00:00 16.8 8 Este 13 Este 0 -- -- 86
2017-11-17 17:00:00 16.9 7 Este 13 Este 0 -- -- 86
2017-11-17 16:00:00 17.2 8 Este 16 Este 0 -- -- 84
2017-11-17 15:00:00 17.5 6 Este 16 Este 0 -- -- 81
2017-11-17 14:00:00 18.3 9 Sudeste 18 Este 0 -- -- 77
2017-11-17 13:00:00 18.2 7 Este 15 Este 0 -- -- 78
2017-11-17 12:00:00 18.7 8 Este 18 Este 0 -- -- 74
2017-11-17 11:00:00 19.5 8 Este 17 Sudeste 0 -- -- 72
2017-11-17 10:00:00 18.5 6 Este 11 Sudeste 0 -- -- 77
2017-11-17 09:00:00 17.5 5 Este 10 Este 0 -- -- 82
2017-11-17 08:00:00 14.4 4 Nordeste 8 Norte 0 -- -- 91
2017-11-17 07:00:00 13.6 4 Norte 9 Noroeste 0 -- -- 91
2017-11-17 06:00:00 13.7 5 Noroeste 9 Noroeste 0 -- -- 91
2017-11-17 05:00:00 14.1 0 Calma 6 Oeste 0 -- -- 91
2017-11-17 04:00:00 14.2 3 Noroeste 6 Noroeste 0 -- -- 91
2017-11-17 03:00:00 14.3 3 Nordeste 7 Nordeste 0 -- -- 91
2017-11-17 02:00:00 13.7 5 Norte 9 Noroeste 0 -- -- 90
2017-11-17 01:00:00 13.9 5 Noroeste 8 Noroeste 0 -- -- 89
2017-11-17 00:00:00 14.3 4 Norte 8 Norte 0 -- -- 88
2017-11-16 23:00:00 14.4 5 Noroeste 8 Noroeste 0 -- -- 85
2017-11-16 22:00:00 15.9 4 Nordeste 10 Este 0 -- -- 83
2017-11-16 21:00:00 16.4 5 Este 12 Este 0 -- -- 83
2017-11-16 20:00:00 16.4 3 Este 7 Este 0 -- -- 83
2017-11-16 19:00:00 16.1 5 Este 10 Este 0 -- -- 83
2017-11-16 18:00:00 16.4 5 Este 14 Este 0 -- -- 81
2017-11-16 17:00:00 17.4 10 Este 17 Este 0 -- -- 76
2017-11-16 16:00:00 18.5 10 Este 22 Este 0 -- -- 73
2017-11-16 15:00:00 19.1 10 Sudeste 19 Sudeste 0 -- -- 70
2017-11-16 14:00:00 19.5 11 Este 19 Este 0 -- -- 68
2017-11-16 13:00:00 19.9 12 Este 21 Este 0 -- -- 68
2017-11-16 12:00:00 19.8 10 Sudeste 19 Este 0 -- -- 67
2017-11-16 11:00:00 19.3 8 Este 15 Sudeste 0 -- -- 70
2017-11-16 10:00:00 17.9 7 Sudeste 12 Este 0 -- -- 75
2017-11-16 09:00:00 15.7 3 Nordeste 8 Norte 0 -- -- 83
2017-11-16 08:00:00 14.1 6 Norte 11 Noroeste 0 -- -- 88
2017-11-16 07:00:00 13.6 5 Noroeste 9 Noroeste 0 -- -- 89
2017-11-16 06:00:00 13.3 5 Noroeste 9 Noroeste 0 -- -- 90
2017-11-16 05:00:00 13.3 4 Norte 9 Noroeste 0 -- -- 88
2017-11-16 04:00:00 13.2 5 Norte 9 Norte 0 -- -- 88
2017-11-16 03:00:00 13.3 7 Norte 12 Norte 0 -- -- 86
2017-11-16 02:00:00 13.7 6 Noroeste 10 Noroeste 0 -- -- 86
2017-11-16 01:00:00 13.8 8 Noroeste 10 Noroeste 0 -- -- 84
2017-11-16 00:00:00 14.4 5 Noroeste 8 Noroeste 0 -- -- 82
2017-11-15 23:00:00 15.8 4 Este 8 Este 0 -- -- 80
2017-11-15 22:00:00 16.3 4 Este 8 Este 0 -- -- 78
2017-11-15 21:00:00 16.6 3 Este 11 Este 0 -- -- 77
2017-11-15 20:00:00 16.8 7 Este 12 Este 0 -- -- 79
2017-11-15 19:00:00 17 4 Sudeste 14 Sudeste 0 -- -- 79
2017-11-15 18:00:00 17.7 4 Sur 13 Sur 0 -- -- 73
2017-11-15 17:00:00 18.6 2 Noroeste 18 Sudeste 0 -- -- 71
2017-11-15 16:00:00 19.1 12 Este 21 Este 0 -- -- 67
2017-11-15 15:00:00 19.3 13 Este 23 Sudeste 0 -- -- 63
2017-11-15 14:00:00 18.8 13 Este 25 Este 0 -- -- 64
2017-11-15 13:00:00 19.4 14 Este 26 Este 0 -- -- 67
2017-11-15 12:00:00 20.1 17 Este 27 Este 0 -- -- 66
2017-11-15 11:00:00 20.4 13 Este 22 Este 0 -- -- 61
2017-11-15 10:00:00 18.8 6 Sur 11 Sudoeste 0 -- -- 67
2017-11-15 09:00:00 17.1 2 Sudeste 11 Sudoeste 0 -- -- 74
2017-11-15 08:00:00 14.9 9 Noroeste 15 Oeste 0 -- -- 83
2017-11-15 07:00:00 14.1 10 Noroeste 14 Oeste 0 -- -- 83
2017-11-15 06:00:00 14 9 Oeste 13 Oeste 0 -- -- 82
2017-11-15 05:00:00 14.1 9 Noroeste 14 Noroeste 0 -- -- 79
2017-11-15 04:00:00 14.1 10 Oeste 14 Oeste 0 -- -- 81
2017-11-15 03:00:00 13.9 10 Noroeste 13 Oeste 0 -- -- 83
2017-11-15 02:00:00 13.9 10 Noroeste 12 Noroeste 0 -- -- 82
2017-11-15 01:00:00 14.6 9 Noroeste 13 Oeste 0 -- -- 81
2017-11-15 00:00:00 15.5 9 Oeste 12 Oeste 0 -- -- 79